DW5805 Weather Reports


time (UTC)temp
C
wind
direction
speed
KPH
gust
KPH
rain 1hr
cm
rain 24hr
cm
rain mn
cm
humidity
%
barometer
mb
20190424074705 12 220 1.6 3.2 0.00 0.00 0.00 55 1020.3
20190424074205 12 220 1.6 3.2 0.00 0.00 0.00 56 1020.3
20190424073705 12 220 1.6 3.2 0.00 0.00 0.00 56 1020.3
20190424073206 12 220 0.0 1.6 0.00 0.00 0.00 56 1020.3
20190424072705 12 220 0.0 3.2 0.00 0.00 0.00 56 1020.3
20190424072205 12 220 1.6 3.2 0.00 0.00 0.00 56 1020.3
20190424071704 12 220 1.6 4.8 0.00 0.00 0.00 56 1020.3
20190424071204 12 220 1.6 4.8 0.00 0.00 0.00 55 1020.3
20190424070704 12 220 1.6 4.8 0.00 0.00 0.00 55 1020.2
20190424070205 12 220 1.6 3.2 0.00 0.00 0.00 55 1020.2
20190424065704 12 220 1.6 3.2 0.00 0.00 0.00 54 1020.2
20190424065204 12 220 1.6 3.2 0.00 0.00 0.00 53 1020.2
20190424064704 12 220 1.6 3.2 0.00 0.00 0.00 53 1020.2
20190424064204 13 220 1.6 3.2 0.00 0.00 0.00 53 1020.2
20190424063704 13 220 1.6 3.2 0.00 0.00 0.00 52 1020.2
20190424063205 13 220 1.6 4.8 0.00 0.00 0.00 52 1020.2
20190424062704 13 220 1.6 4.8 0.00 0.00 0.00 52 1020.2
20190424062204 13 220 1.6 4.8 0.00 0.00 0.00 50 1020.3
20190424061705 13 220 3.2 4.8 0.00 0.00 0.00 51 1020.2
20190424061205 13 221 3.2 4.8 0.00 0.00 0.00 51 1020.3
20190424060705 13 223 3.2 4.8 0.00 0.00 0.00 49 1020.2
20190424060205 14 223 3.2 4.8 0.00 0.00 0.00 49 1020.2
20190424055704 14 223 3.2 6.4 0.00 0.00 0.00 49 1020.2
20190424055205 14 225 3.2 11.3 0.00 0.00 0.00 47 1020.2
20190424054705 15 232 4.8 11.3 0.00 0.00 0.00 47 1020.2
20190424054205 15 244 6.4 11.3 0.00 0.00 0.00 47 1020.2
20190424053705 15 236 6.4 9.7 0.00 0.00 0.00 46 1020.2
20190424053205 15 226 6.4 9.7 0.00 0.00 0.00 47 1020.2
20190424052705 15 254 6.4 11.3 0.00 0.00 0.00 47 1020.2
20190424052206 15 223 6.4 11.3 0.00 0.00 0.00 47 1020.2
20190424051705 15 223 6.4 11.3 0.00 0.00 0.00 48 1020.2
20190424051204 14 225 6.4 9.7 0.00 0.00 0.00 48 1020.2
20190424050704 14 234 6.4 9.7 0.00 0.00 0.00 48 1020.3
20190424050205 14 226 6.4 9.7 0.00 0.00 0.00 48 1020.3
20190424045705 14 235 6.4 9.7 0.00 0.00 0.00 48 1020.3
20190424045204 14 238 6.4 9.7 0.00 0.00 0.00 48 1020.3
20190424044705 15 256 6.4 9.7 0.00 0.00 0.00 48 1020.2
20190424044204 15 247 6.4 8.0 0.00 0.00 0.00 48 1020.2
20190424043705 15 238 4.8 9.7 0.00 0.00 0.00 48 1020.2
20190424043204 15 269 4.8 11.3 0.00 0.00 0.00 47 1020.0
20190424042704 15 269 6.4 11.3 0.00 0.00 0.00 46 1020.0
20190424042205 15 259 6.4 11.3 0.00 0.00 0.00 46 1020.0
20190424041704 15 236 6.4 9.7 0.00 0.00 0.00 46 1020.0
20190424041205 16 230 6.4 11.3 0.00 0.00 0.00 46 1019.9
20190424040704 16 218 6.4 11.3 0.00 0.00 0.00 45 1019.9
20190424040204 16 224 6.4 11.3 0.00 0.00 0.00 45 1019.9
20190424035705 16 234 6.4 11.3 0.00 0.00 0.00 45 1019.9
20190424035204 16 243 6.4 11.3 0.00 0.00 0.00 45 1019.9
20190424034704 16 228 4.8 11.3 0.00 0.00 0.00 45 1019.8
20190424034204 16 242 4.8 9.7 0.00 0.00 0.00 45 1019.8
20190424033704 16 229 4.8 9.7 0.00 0.00 0.00 45 1019.8
20190424033204 16 236 4.8 9.7 0.00 0.00 0.00 44 1019.8
20190424032705 16 232 4.8 8.0 0.00 0.00 0.00 45 1019.7
20190424032204 16 225 4.8 8.0 0.00 0.00 0.00 43 1019.7
20190424031705 17 247 4.8 6.4 0.00 0.00 0.00 42 1019.7
20190424031205 17 254 3.2 6.4 0.00 0.00 0.00 41 1019.6
20190424030704 17 317 3.2 4.8 0.00 0.00 0.00 40 1019.7
20190424030205 17 344 3.2 6.4 0.00 0.00 0.00 39 1019.6
20190424025704 18 344 3.2 8.0 0.00 0.00 0.00 38 1019.6
20190424025205 18 344 3.2 9.7 0.00 0.00 0.00 37 1019.6
20190424024705 18 344 4.8 11.3 0.00 0.00 0.00 37 1019.6
20190424024205 18 344 4.8 11.3 0.00 0.00 0.00 37 1019.6
20190424023705 19 336 4.8 11.3 0.00 0.00 0.00 36 1019.5
20190424023205 19 341 6.4 12.9 0.00 0.00 0.00 36 1019.5
20190424022705 19 0 6.4 14.5 0.00 0.00 0.00 35 1019.3
20190424022204 20 350 6.4 17.7 0.00 0.00 0.00 35 1019.3
20190424021705 20 348 9.7 17.7 0.00 0.00 0.00 35 1019.3
20190424021205 20 327 9.7 17.7 0.00 0.00 0.00 34 1019.3
20190424020705 20 0 9.7 16.1 0.00 0.00 0.00 34 1019.3
20190424020204 20 338 9.7 20.9 0.00 0.00 0.00 34 1019.3
20190424015705 20 355 9.7 20.9 0.00 0.00 0.00 33 1019.3
20190424015205 20 355 9.7 20.9 0.00 0.00 0.00 33 1019.3
20190424014704 20 344 9.7 19.3 0.00 0.00 0.00 33 1019.3
20190424014206 20 339 9.7 19.3 0.00 0.00 0.00 33 1019.3
20190424013705 20 337 9.7 19.3 0.00 0.00 0.00 32 1019.3
20190424013205 21 324 6.4 14.5 0.00 0.00 0.00 32 1019.3
20190424012704 21 331 6.4 14.5 0.00 0.00 0.00 31 1019.5
20190424012205 21 337 8.0 17.7 0.00 0.00 0.00 31 1019.5
20190424011705 21 9 9.7 17.7 0.00 0.00 0.00 31 1019.6
20190424011205 21 0 9.7 17.7 0.00 0.00 0.00 31 1019.5
20190424010704 21 326 8.0 17.7 0.00 0.00 0.00 30 1019.6
20190424010205 21 335 6.4 14.5 0.00 0.00 0.00 31 1019.6
20190424005705 21 258 6.4 14.5 0.00 0.00 0.00 31 1019.6
20190424005204 21 292 6.4 16.1 0.00 0.00 0.00 30 1019.6
20190424004705 22 328 6.4 16.1 0.00 0.00 0.00 29 1019.6
20190424004205 22 11 8.0 16.1 0.00 0.00 0.00 29 1019.6
20190424003705 22 342 8.0 19.3 0.00 0.00 0.00 29 1019.7
20190424003205 22 323 9.7 19.3 0.00 0.00 0.00 29 1019.7
20190424002705 22 340 9.7 19.3 0.00 0.00 0.00 28 1019.7
20190424002204 22 335 6.4 14.5 0.00 0.00 0.00 29 1019.7
20190424001704 22 13 6.4 19.3 0.00 0.00 0.00 29 1019.7
20190424001204 22 317 8.0 22.5 0.00 0.00 0.00 29 1019.8
20190424000717 22 330 9.7 22.5 0.00 0.00 0.00 28 1019.8
20190424000205 22 336 8.0 17.7 0.00 0.00 0.00 29 1019.8
20190423235705 22 351 8.0 17.7 0.00 0.00 0.00 28 1019.8
20190423235205 22 333 8.0 14.5 0.00 0.00 0.00 28 1019.8
20190423234705 22 338 6.4 17.7 0.00 0.00 0.00 28 1019.7
20190423234204 22 321 9.7 17.7 0.00 0.00 0.00 28 1019.7
20190423233705 22 280 8.0 17.7 0.00 0.00 0.00 28 1019.8
20190423233205 22 337 6.4 16.1 0.00 0.00 0.00 28 1019.8
20190423232706 23 119 6.4 16.1 0.00 0.00 0.00 27 1019.8
20190423232204 23 5 4.8 12.9 0.00 0.00 0.00 27 1019.8
20190423231705 23 63 6.4 12.9 0.00 0.00 0.00 27 1019.9
20190423231205 23 322 4.8 16.1 0.00 0.00 0.00 26 1019.9
20190423230704 23 341 4.8 16.1 0.00 0.00 0.00 26 1020.0
20190423230204 23 128 8.0 16.1 0.00 0.00 0.00 25 1020.2
20190423225705 23 158 6.4 14.5 0.00 0.00 0.00 26 1020.2
20190423225204 22 167 4.8 14.5 0.00 0.00 0.00 27 1020.3
20190423224705 23 111 4.8 19.3 0.00 0.00 0.00 27 1020.4
20190423224205 23 143 4.8 19.3 0.00 0.00 0.00 28 1020.3
20190423223705 22 121 6.4 19.3 0.00 0.00 0.00 27 1020.4
20190423223204 22 75 4.8 11.3 0.00 0.00 0.00 27 1020.5
20190423222704 22 176 4.8 11.3 0.00 0.00 0.00 26 1020.5
20190423222205 22 292 4.8 11.3 0.00 0.00 0.00 25 1020.6
20190423221705 22 174 4.8 12.9 0.00 0.00 0.00 25 1020.7
20190423221204 22 73 4.8 14.5 0.00 0.00 0.00 27 1020.9
20190423220705 22 103 4.8 14.5 0.00 0.00 0.00 25 1020.9
20190423220205 22 126 4.8 14.5 0.00 0.00 0.00 26 1021.0
20190423215705 22 32 4.8 16.1 0.00 0.00 0.00 26 1021.0
20190423215205 22 140 6.4 16.1 0.00 0.00 0.00 26 1021.0
20190423214705 21 340 4.8 16.1 0.00 0.00 0.00 26 1021.1
20190423214205 22 5 4.8 11.3 0.00 0.00 0.00 25 1021.2
20190423213704 22 18 4.8 9.7 0.00 0.00 0.00 26 1021.2
20190423213205 22 90 4.8 8.0 0.00 0.00 0.00 28 1021.2
20190423212705 21 304 3.2 11.3 0.00 0.00 0.00 25 1021.3
20190423212204 21 68 4.8 12.9 0.00 0.00 0.00 24 1021.3
20190423211704 21 238 6.4 12.9 0.00 0.00 0.00 26 1021.4
20190423211205 21 94 4.8 19.3 0.00 0.00 0.00 26 1021.4
20190423210705 21 140 6.4 19.3 0.00 0.00 0.00 26 1021.6
20190423210205 21 15 8.0 17.7 0.00 0.00 0.00 25 1021.6
20190423205705 21 106 8.0 17.7 0.00 0.00 0.00 25 1021.6
20190423205205 21 66 6.4 17.7 0.00 0.00 0.00 25 1021.7
20190423204704 21 119 4.8 17.7 0.00 0.00 0.00 26 1021.6
20190423204204 21 53 6.4 19.3 0.00 0.00 0.00 27 1021.6
20190423203704 21 342 6.4 19.3 0.00 0.00 0.00 27 1021.7
20190423203205 21 105 8.0 17.7 0.00 0.00 0.00 27 1021.7
20190423202705 21 63 8.0 17.7 0.00 0.00 0.00 26 1021.7
20190423202205 21 355 6.4 17.7 0.00 0.00 0.00 26 1021.7
20190423201705 20 130 6.4 17.7 0.00 0.00 0.00 26 1021.7
20190423201205 20 76 6.4 14.5 0.00 0.00 0.00 25 1021.8
20190423200705 20 130 4.8 16.1 0.00 0.00 0.00 25 1021.9
20190423200204 20 65 6.4 16.1 0.00 0.00 0.00 25 1021.9
20190423195705 21 55 6.4 16.1 0.00 0.00 0.00 26 1022.0
20190423195205 20 98 4.8 16.1 0.00 0.00 0.00 25 1022.0
20190423194704 20 159 6.4 16.1 0.00 0.00 0.00 26 1022.0
20190423194204 20 105 6.4 16.1 0.00 0.00 0.00 25 1022.1
20190423193704 20 138 4.8 14.5 0.00 0.00 0.00 26 1022.1
20190423193205 21 80 6.4 14.5 0.00 0.00 0.00 24 1022.3
20190423192705 21 93 6.4 14.5 0.00 0.00 0.00 27 1022.3
20190423192205 20 149 8.0 14.5 0.00 0.00 0.00 27 1022.3
20190423191704 20 84 6.4 14.5 0.00 0.00 0.00 24 1022.4
20190423191205 20 145 4.8 14.5 0.00 0.00 0.00 23 1022.4
20190423190705 20 47 6.4 16.1 0.00 0.00 0.00 23 1022.4
20190423190204 20 107 6.4 16.1 0.00 0.00 0.00 25 1022.5
20190423185705 20 155 8.0 16.1 0.00 0.00 0.00 24 1022.6
20190423185204 20 142 6.4 14.5 0.00 0.00 0.00 24 1022.7
20190423184705 20 103 6.4 14.5 0.00 0.00 0.00 24 1022.7
20190423184205 19 171 6.4 14.5 0.00 0.00 0.00 25 1022.7
20190423183705 19 71 6.4 12.9 0.00 0.00 0.00 25 1022.8
20190423183205 18 19 4.8 12.9 0.00 0.00 0.00 24 1022.8
20190423182704 18 105 4.8 12.9 0.00 0.00 0.00 23 1022.8
20190423182204 18 26 4.8 12.9 0.00 0.00 0.00 23 1022.9
20190423181704 18 67 4.8 16.1 0.00 0.00 0.00 26 1022.9
20190423181205 18 140 4.8 16.1 0.00 0.00 0.00 25 1022.9
20190423180704 18 87 6.4 16.1 0.00 0.00 0.00 26 1023.1
20190423180205 18 40 4.8 12.9 0.00 0.00 0.00 26 1023.1
20190423175705 18 139 3.2 11.3 0.00 0.00 0.00 25 1023.1
20190423175205 18 71 4.8 11.3 0.00 0.00 0.00 25 1022.9
20190423174704 18 130 4.8 11.3 0.00 0.00 0.00 28 1023.1
20190423174205 17 340 4.8 11.3 0.00 0.00 0.00 26 1022.9
20190423173705 17 343 3.2 9.7 0.00 0.00 0.00 28 1022.9
20190423173205 17 113 3.2 8.0 0.00 0.00 0.00 27 1023.1
20190423172705 16 355 3.2 8.0 0.00 0.00 0.00 27 1023.1
20190423172205 16 98 3.2 8.0 0.00 0.00 0.00 30 1023.2
20190423171704 17 82 3.2 9.7 0.00 0.00 0.00 27 1023.2
20190423171205 16 16 3.2 9.7 0.00 0.00 0.00 29 1023.2
20190423170704 16 16 4.8 9.7 0.00 0.00 0.00 29 1023.2
20190423170204 16 19 3.2 11.3 0.00 0.00 0.00 30 1023.2
20190423165704 16 355 3.2 11.3 0.00 0.00 0.00 31 1023.2
20190423165204 15 333 3.2 11.3 0.00 0.00 0.00 31 1023.3
20190423164705 15 23 3.2 8.0 0.00 0.00 0.00 33 1023.4
20190423164205 15 9 3.2 6.4 0.00 0.00 0.00 35 1023.3
20190423163705 15 345 3.2 6.4 0.00 0.00 0.00 31 1023.3
20190423163204 14 15 3.2 6.4 0.00 0.00 0.00 31 1023.4
20190423162704 14 5 3.2 6.4 0.00 0.00 0.00 33 1023.4
20190423162204 14 49 3.2 6.4 0.00 0.00 0.00 35 1023.3
20190423161705 13 53 1.6 4.8 0.00 0.00 0.00 36 1023.2
20190423161205 13 101 1.6 6.4 0.00 0.00 0.00 36 1023.2
20190423160705 13 88 1.6 6.4 0.00 0.00 0.00 36 1023.1
20190423160205 13 110 1.6 6.4 0.00 0.00 0.00 37 1023.2
20190423155705 13 107 1.6 6.4 0.00 0.00 0.00 36 1023.2
20190423155204 13 111 3.2 6.4 0.00 0.00 0.00 39 1023.3
20190423154704 13 114 3.2 6.4 0.00 0.00 0.00 40 1023.3
20190423154204 13 114 3.2 6.4 0.00 0.00 0.00 39 1023.3
20190423153705 12 146 3.2 6.4 0.00 0.00 0.00 39 1023.3
20190423153204 12 115 3.2 6.4 0.00 0.00 0.00 38 1023.4
20190423152705 12 119 3.2 4.8 0.00 0.00 0.00 40 1023.3
20190423152205 12 121 1.6 4.8 0.00 0.00 0.00 40 1023.3
20190423151704 11 111 1.6 6.4 0.00 0.00 0.00 41 1023.3
20190423151204 11 111 3.2 8.0 0.00 0.00 0.00 37 1023.3
20190423150705 11 123 3.2 8.0 0.00 0.00 0.00 41 1023.2
20190423150205 11 145 3.2 8.0 0.00 0.00 0.00 40 1023.2
20190423145705 10 150 1.6 3.2 0.00 0.00 0.00 40 1023.3
20190423145205 8 255 1.6 3.2 0.00 0.00 0.00 43 1023.3
20190423144705 7 255 1.6 3.2 0.00 0.00 0.00 47 1023.3
20190423144205 7 286 1.6 3.2 0.00 0.00 0.00 46 1023.3
20190423143705 6 286 1.6 3.2 0.00 0.00 0.00 47 1023.3
20190423143205 6 286 1.6 3.2 0.00 0.00 0.00 46 1023.3
20190423142705 6 283 1.6 6.4 0.00 0.00 0.00 49 1023.2
20190423142204 6 283 1.6 6.4 0.00 0.00 0.00 50 1023.2
20190423141704 6 283 3.2 9.7 0.00 0.00 0.00 51 1022.9
20190423141205 6 283 4.8 9.7 0.00 0.00 0.00 52 1023.1
20190423140705 5 283 4.8 9.7 0.00 0.00 0.00 53 1022.9
20190423140205 5 283 4.8 9.7 0.00 0.00 0.00 53 1022.9
20190423135705 5 283 3.2 4.8 0.00 0.00 0.00 53 1022.9
20190423135204 5 254 1.6 4.8 0.00 0.00 0.00 53 1022.9
20190423134705 5 213 1.6 4.8 0.00 0.00 0.00 54 1022.9
20190423134204 5 213 1.6 4.8 0.00 0.00 0.00 54 1022.8
20190423133704 5 213 1.6 4.8 0.00 0.00 0.00 54 1022.9
20190423133205 5 213 3.2 4.8 0.00 0.00 0.00 53 1022.9
20190423132705 5 257 1.6 3.2 0.00 0.00 0.00 52 1022.9
20190423132205 5 281 1.6 3.2 0.00 0.00 0.00 53 1022.9
20190423131704 5 281 1.6 3.2 0.00 0.00 0.00 52 1022.8
20190423131204 5 281 1.6 3.2 0.00 0.00 0.00 51 1022.8
20190423130705 5 281 1.6 3.2 0.00 0.00 0.00 52 1022.8
20190423130205 5 281 1.6 3.2 0.00 0.00 0.00 49 1022.8
20190423125705 5 281 1.6 1.6 0.00 0.00 0.00 50 1022.9
20190423125204 5 281 0.0 4.8 0.00 0.00 0.00 50 1022.8
20190423124705 5 281 0.0 4.8 0.00 0.00 0.00 49 1022.8
20190423124204 6 281 1.6 4.8 0.00 0.00 0.00 48 1022.7
20190423123704 6 281 1.6 4.8 0.00 0.00 0.00 48 1022.8
20190423123204 6 281 0.0 3.2 0.00 0.00 0.00 49 1022.7
20190423122704 6 281 1.6 3.2 0.00 0.00 0.00 50 1022.8
20190423122204 5 281 1.6 3.2 0.00 0.00 0.00 49 1022.7
20190423121705 5 281 1.6 4.8 0.00 0.00 0.00 49 1022.8
20190423121204 5 281 1.6 6.4 0.00 0.00 0.00 48 1022.8
20190423120705 5 281 3.2 8.0 0.00 0.00 0.00 48 1022.8
20190423120205 5 281 4.8 8.0 0.00 0.00 0.00 48 1022.7
20190423115705 6 281 4.8 8.0 0.00 0.00 0.00 47 1022.7
20190423115204 6 286 3.2 6.4 0.00 0.00 0.00 46 1022.7
20190423114704 6 295 1.6 4.8 0.00 0.00 0.00 45 1022.7
20190423114204 6 295 1.6 4.8 0.00 0.00 0.00 45 1022.6
20190423113704 6 295 1.6 4.8 0.00 0.00 0.00 45 1022.6
20190423113204 6 295 3.2 4.8 0.00 0.00 0.00 45 1022.6
20190423112704 6 295 3.2 4.8 0.00 0.00 0.00 45 1022.6
20190423112204 6 295 1.6 4.8 0.00 0.00 0.00 45 1022.6
20190423111704 6 295 1.6 3.2 0.00 0.00 0.00 46 1022.7
20190423111205 6 295 0.0 1.6 0.00 0.00 0.00 45 1022.8
20190423110705 6 295 0.0 4.8 0.00 0.00 0.00 45 1022.8
20190423110205 6 295 1.6 4.8 0.00 0.00 0.00 44 1022.8
20190423105704 6 295 1.6 4.8 0.00 0.00 0.00 44 1022.9
20190423105205 6 295 3.2 6.4 0.00 0.00 0.00 44 1022.9
20190423104705 6 295 3.2 6.4 0.00 0.00 0.00 43 1022.8
20190423104205 6 295 4.8 6.4 0.00 0.00 0.00 41 1022.8
20190423103705 7 295 3.2 8.0 0.00 0.00 0.00 42 1022.9
20190423103205 7 295 4.8 8.0 0.00 0.00 0.00 40 1022.9
20190423102705 7 295 4.8 8.0 0.00 0.00 0.00 41 1022.9
20190423102205 7 295 3.2 6.4 0.00 0.00 0.00 41 1022.9
20190423101711 7 281 3.2 6.4 0.00 0.00 0.00 40 1022.9
20190423101205 7 281 3.2 6.4 0.00 0.00 0.00 39 1022.9
20190423100705 7 281 3.2 6.4 0.00 0.00 0.00 38 1023.1
20190423100206 7 281 3.2 4.8 0.00 0.00 0.00 41 1023.1
20190423095705 7 281 3.2 4.8 0.00 0.00 0.00 39 1023.1
20190423095204 7 281 1.6 3.2 0.00 0.00 0.00 39 1023.1
20190423094704 7 281 1.6 4.8 0.00 0.00 0.00 39 1023.1
20190423094205 7 281 1.6 4.8 0.00 0.00 0.00 39 1023.1
20190423093705 7 281 3.2 4.8 0.00 0.00 0.00 38 1023.1
20190423093205 7 281 3.2 4.8 0.00 0.00 0.00 38 1023.2
20190423092705 7 281 1.6 4.8 0.00 0.00 0.00 38 1023.1
20190423092205 7 281 3.2 4.8 0.00 0.00 0.00 38 1023.2
20190423091206 7 281 3.2 6.4 0.00 0.00 0.00 38 1023.2
20190423090705 7 281 3.2 6.4 0.00 0.00 0.00 38 1023.2
20190423090206 7 281 4.8 6.4 0.00 0.00 0.00 37 1023.2
20190423085705 7 281 3.2 6.4 0.00 0.00 0.00 37 1023.3
20190423085205 8 280 1.6 3.2 0.00 0.00 0.00 37 1023.3
20190423084705 8 275 1.6 4.8 0.00 0.00 0.00 35 1023.3
20190423084204 8 275 1.6 4.8 0.00 0.00 0.00 36 1023.4
20190423083704 8 275 1.6 4.8 0.00 0.00 0.00 36 1023.4
20190423083205 8 275 1.6 3.2 0.00 0.00 0.00 35 1023.4
20190423082706 8 281 0.0 3.2 0.00 0.00 0.00 34 1023.4
20190423082205 8 281 1.6 4.8 0.00 0.00 0.00 34 1023.4
20190423081705 9 281 1.6 4.8 0.00 0.00 0.00 33 1023.4
20190423081205 9 282 1.6 4.8 0.00 0.00 0.00 33 1023.5
20190423080704 8 281 3.2 6.4 0.00 0.00 0.00 34 1023.5
20190423080205 8 281 4.8 6.4 0.00 0.00 0.00 33 1023.6
20190423075704 8 281 4.8 6.4 0.00 0.00 0.00 34 1023.5
20190423075205 8 282 4.8 9.7 0.00 0.00 0.00 35 1023.6